Home   Weather   Korbach   Past weeks

Flag for Germany Past Weather in Korbach, Hesse, Germany — Yesterday and Last 2 Weeks

Now
48 °F

Passing clouds.


Feels Like: 45 °F
Forecast: 43 / 48 °F
Wind: 7 mph from East

Location: Fritzlar Airport

Current Time: May 1, 2017 at 2:55:55 am

Latest Report: May 1, 2017 at 2:20 am


Visibility: N/A

Pressure: 29.80 "Hg

Humidity: 58%

Dew Point: 34 °F

Location of KorbachLocation

Past Weather in Korbach — Graph

°F

Korbach Temperature Yesterday

Maximum temperature yesterday: 63 °F (at 4:20 pm)
Minimum temperature yesterday: 30 °F (at 5:20 am)
Average temperature yesterday: 48 °F

High & Low Weather Summary for the Past Weeks

 TemperatureHumidityPressure
High63 °F (Apr 30, 4:20 pm)100% (Apr 24, 4:20 am)30.60 "Hg (Apr 24, 4:20 am)
Low25 °F (Apr 20, 6:20 am)30% (Apr 26, 3:20 pm)29.62 "Hg (Apr 25, 5:20 am)
Average43 °F64%30.10 "Hg
* Reported Apr 16 1:20 am — May 1 1:20 am, Korbach, Weather by CustomWeather, © 2017

Note: Actual official high and low records may vary slightly from our data, if they occured in-between our weather recording intervals... More about our weather records

Advertising

Korbach Weather History for the Previous 24 Hours

Scroll right to see more
 ConditionsComfort  
Time TempWeatherWind HumidityBarometerVisibility
1:20 am
Mon, May 1
50 °FPassing clouds.6 mph54%29.80 "HgN/A
12:20 am48 °FPassing clouds.3 mph58%29.80 "HgN/A
11:20 pm
Sun, Apr 30
50 °FPassing clouds.5 mph50%29.80 "HgN/A
10:20 pm50 °FPassing clouds.6 mph50%29.83 "HgN/A
9:20 pm54 °FPassing clouds.12 mph44%29.80 "HgN/A
8:20 pm57 °FPartly sunny.14 mph36%29.80 "HgN/A
7:20 pm61 °FPassing clouds.16 mph31%29.80 "HgN/A
6:20 pm63 °FPassing clouds.14 mph34%29.80 "HgN/A
5:20 pm63 °FScattered clouds.17 mph30%29.83 "HgN/A
4:20 pm63 °FScattered clouds.17 mph32%29.86 "HgN/A
3:20 pm61 °FScattered clouds.16 mph36%29.89 "HgN/A
2:20 pm61 °FScattered clouds.18 mph36%29.92 "HgN/A
1:20 pm57 °FScattered clouds.15 mph41%29.95 "HgN/A
12:20 pm57 °FScattered clouds.12 mph44%29.95 "HgN/A
11:20 am55 °FScattered clouds.13 mph47%29.98 "HgN/A
10:20 am52 °FScattered clouds.14 mph54%30.01 "HgN/A
9:20 am46 °FPassing clouds.3 mph57%30.04 "HgN/A
8:20 am39 °FPassing clouds.3 mph75%30.04 "HgN/A
7:20 am32 °FChilly.7 mph80%30.04 "HgN/A
6:20 am30 °FChilly.8 mph86%30.04 "HgN/A
5:20 am30 °FChilly.8 mph86%30.04 "HgN/A
4:20 am32 °FChilly.5 mph80%30.07 "HgN/A
3:20 am32 °FChilly.5 mph80%30.07 "HgN/A
2:20 am32 °FChilly.6 mph80%30.07 "HgN/A
Weather by CustomWeather, © 2017

See weather overviewHow to use our weather pages